sat.trackr.live / text

‹ back to catalog

PLEIADES 1B

NORAD 39019 · 2012-068A

PAYLOAD ACTIVE UNKNOWN

§ Identity

Operator
Country
FR
Launch date
2012-12-02
Launch site
FRGUI
Launch vehicle
Mass (kg)
RCS (m²)
5.44

Purposes: earth_obs

External: N2YO · Heavens-Above · Gunter

§ Orbital elements

Epoch: 2026-09-20T05:31:24.250656Z

Period
98.73 min
Inclination
98.1871°
Eccentricity
0.0001394
Mean motion
14.58567037 rev/d
Perigee alt
696.8 km
Apogee alt
698.8 km
Semi-major
7,075.9 km
B*
2.5512e-5
RAAN
336.9338°
Arg perigee
101.2260°
Mean anomaly
258.9096°
Rev number
73,470

§ Raw data

PLEIADES 1B1 39019U 12068A   26263.23014179  .00000073  00000+0  25512-4 0  99932 39019  98.1871 336.9338 0001394 101.2260 258.9096 14.58567037734708

JSON: /api/v1/satellites/39019 · /tle

For live sub-satellite position, see the globe view (requires WebGL).

§ Visibility from observer

Set your observer location to see the next 7 days of passes ≥ 10°. The values pass through the URL so the page stays shareable.

No JS? Fill the form by hand. The geolocation button needs JavaScript.

§ Radio — SatNOGS DB

ModeDescriptionDownlinkUplink
BPSK S-band telemetry 2.269 GHz

1 transmitter · refreshed weekly from db.satnogs.org